sat.trackr.live / text

‹ back to catalog

STARLINK-3942

NORAD 52563 · 2022-051AG

PAYLOAD ACTIVE UNKNOWN

§ Identity

Operator
Country
US
Launch date
2022-05-13
Launch site
AFWTR
Launch vehicle
Mass (kg)
RCS (m²)

Purposes: comms

External: N2YO · Heavens-Above · Gunter

§ Orbital elements

Epoch: 2026-05-25T00:12:56.750688Z

Period
95.44 min
Inclination
53.2147°
Eccentricity
0.0001173
Mean motion
15.08838556 rev/d
Perigee alt
538.9 km
Apogee alt
540.6 km
Semi-major
6,917.9 km
B*
1.0136e-5
RAAN
151.5096°
Arg perigee
71.4516°
Mean anomaly
288.6604°
Rev number
22,289

§ Raw data

STARLINK-39421 52563U 22051AG  26145.00899017 -.00000127  00000+0  10136-4 0  99982 52563  53.2147 151.5096 0001173  71.4516 288.6604 15.08838556222894

JSON: /api/v1/satellites/52563 · /tle

For live sub-satellite position, see the globe view (requires WebGL).

§ Visibility from observer

Set your observer location to see the next 7 days of passes ≥ 10°. The values pass through the URL so the page stays shareable.

No JS? Fill the form by hand. The geolocation button needs JavaScript.